Location: Melbourne
(37.8170°S, 144.9670°E)
Time: 18:32:52
(UTC+10:00)

ISS - Visible Passes

Search period start: 28 September 2016 00:00
Search period end: 08 October 2016 01:00
Orbit: 400 x 410 km, 51.6° (Epoch: 28 September)

Date Brightness Start Highest point End Pass type
(mag) Time Alt. Az. Time Alt. Az. Time Alt. Az.
03 Oct -0.5 05:56:22 10° N 05:58:33 16° NE 06:00:44 10° E visible
05 Oct -2.2 05:47:42 12° NNW 05:50:32 41° NE 05:53:44 10° ESE visible
06 Oct -1.2 04:58:00 20° NE 04:58:32 21° NE 05:01:08 10° E visible
07 Oct -3.3 05:40:52 25° WNW 05:42:38 72° SW 05:46:00 10° SE visible
